Time,TemperatureF,DewpointF,PressureIn,WindDirection,WindDirectionDegrees,WindSpeedMPH,WindSpeedGustMPH,Humidity,HourlyPrecipIn,Conditions,Clouds,dailyrainin,SoftwareType,DateUTC
2013-03-29 00:03:00,67.0,58.0,30.09,East,98,8.0,16.0,72,0.00,,,0.00,,2013-03-29 05:03:00,
2013-03-29 00:12:00,67.0,58.0,30.09,East,98,8.0,16.0,72,0.00,,,0.00,,2013-03-29 05:12:00,
2013-03-29 00:23:00,66.0,57.0,30.09,SE,143,6.0,15.0,73,0.00,,,0.00,,2013-03-29 05:23:00,
2013-03-29 00:32:00,66.0,57.0,30.09,SE,137,7.0,15.0,73,0.00,,,0.00,,2013-03-29 05:32:00,
2013-03-29 00:43:00,66.0,57.0,30.09,SE,137,7.0,15.0,73,0.00,,,0.00,,2013-03-29 05:43:00,
2013-03-29 00:52:00,66.0,57.0,30.09,South,191,8.0,17.0,73,0.00,,,0.00,,2013-03-29 05:52:00,
2013-03-29 01:02:00,66.0,57.0,30.10,SE,129,4.0,12.0,74,0.00,,,0.00,,2013-03-29 06:02:00,
2013-03-29 01:12:00,66.0,57.0,30.10,SE,129,4.0,12.0,74,0.00,,,0.00,,2013-03-29 06:12:00,
2013-03-29 01:23:00,66.0,57.0,30.09,SSW,195,7.0,14.0,74,0.00,,,0.00,,2013-03-29 06:23:00,
2013-03-29 01:32:00,66.0,58.0,30.09,SE,145,6.0,13.0,75,0.00,,,0.00,,2013-03-29 06:32:00,
2013-03-29 01:42:00,66.0,58.0,30.09,SE,145,6.0,13.0,75,0.00,,,0.00,,2013-03-29 06:42:00,
2013-03-29 01:52:00,65.0,57.0,30.10,SE,138,6.0,14.0,76,0.00,,,0.00,,2013-03-29 06:52:00,
2013-03-29 02:03:00,65.0,57.0,30.09,SE,129,8.0,16.0,76,0.00,,,0.00,,2013-03-29 07:03:00,
2013-03-29 02:12:00,65.0,57.0,30.09,SE,129,8.0,16.0,76,0.00,,,0.00,,2013-03-29 07:12:00,
2013-03-29 02:22:00,65.0,58.0,30.09,ESE,117,8.0,14.0,77,0.00,,,0.00,,2013-03-29 07:22:00,
2013-03-29 02:32:00,65.0,58.0,30.09,SSE,158,8.0,16.0,77,0.00,,,0.00,,2013-03-29 07:32:00,
2013-03-29 02:42:00,65.0,58.0,30.09,SSE,158,8.0,16.0,77,0.00,,,0.00,,2013-03-29 07:42:00,
2013-03-29 02:52:00,65.0,58.0,30.09,SSE,153,7.0,16.0,77,0.00,,,0.00,,2013-03-29 07:52:00,
2013-03-29 03:02:00,65.0,58.0,30.09,SW,222,6.0,19.0,78,0.00,,,0.00,,2013-03-29 08:02:00,
2013-03-29 03:12:00,65.0,58.0,30.09,SW,222,6.0,19.0,78,0.00,,,0.00,,2013-03-29 08:12:00,
2013-03-29 03:22:00,65.0,58.0,30.10,SE,144,7.0,14.0,78,0.00,,,0.00,,2013-03-29 08:22:00,
2013-03-29 03:32:00,64.0,57.0,30.10,South,177,7.0,17.0,78,0.00,,,0.00,,2013-03-29 08:32:00,
2013-03-29 03:42:00,64.0,57.0,30.10,South,177,7.0,17.0,78,0.00,,,0.00,,2013-03-29 08:42:00,
2013-03-29 03:53:00,64.0,57.0,30.10,East,92,8.0,16.0,78,0.00,,,0.00,,2013-03-29 08:53:00,
2013-03-29 04:02:00,64.0,57.0,30.09,SSE,162,6.0,15.0,79,0.00,,,0.00,,2013-03-29 09:02:00,
2013-03-29 04:13:00,64.0,57.0,30.09,SSE,162,6.0,15.0,79,0.00,,,0.00,,2013-03-29 09:13:00,
2013-03-29 04:22:00,64.0,57.0,30.10,SSW,205,7.0,16.0,79,0.00,,,0.00,,2013-03-29 09:22:00,
2013-03-29 04:32:00,64.0,57.0,30.10,SSW,205,7.0,16.0,79,0.00,,,0.00,,2013-03-29 09:32:00,
2013-03-29 04:42:00,64.0,57.0,30.10,SSW,205,7.0,16.0,79,0.00,,,0.00,,2013-03-29 09:42:00,
2013-03-29 04:52:00,63.0,57.0,30.09,SSE,159,8.0,14.0,80,0.00,,,0.00,,2013-03-29 09:52:00,
2013-03-29 05:02:00,63.0,57.0,30.09,SSE,153,8.0,19.0,80,0.00,,,0.00,,2013-03-29 10:02:00,
2013-03-29 05:12:00,63.0,57.0,30.09,SSE,153,8.0,19.0,80,0.00,,,0.00,,2013-03-29 10:12:00,
2013-03-29 05:22:00,63.0,57.0,30.09,SE,129,8.0,16.0,81,0.00,,,0.00,,2013-03-29 10:22:00,
2013-03-29 05:33:00,63.0,57.0,30.10,South,185,5.0,13.0,81,0.00,,,0.00,,2013-03-29 10:33:00,
2013-03-29 05:42:00,63.0,57.0,30.10,South,185,5.0,13.0,81,0.00,,,0.00,,2013-03-29 10:42:00,
2013-03-29 05:53:00,63.0,57.0,30.09,SSE,162,7.0,15.0,81,0.00,,,0.00,,2013-03-29 10:53:00,
2013-03-29 06:03:00,63.0,57.0,30.10,ESE,122,7.0,15.0,81,0.00,,,0.00,,2013-03-29 11:03:00,
2013-03-29 06:12:00,63.0,57.0,30.10,ESE,122,7.0,15.0,81,0.00,,,0.00,,2013-03-29 11:12:00,
2013-03-29 06:23:00,62.0,56.0,30.11,SSE,148,8.0,17.0,81,0.00,,,0.00,,2013-03-29 11:23:00,
2013-03-29 06:32:00,62.0,56.0,30.11,SE,124,6.0,17.0,82,0.00,,,0.00,,2013-03-29 11:32:00,
2013-03-29 06:42:00,62.0,56.0,30.11,SE,124,6.0,17.0,82,0.00,,,0.00,,2013-03-29 11:42:00,
2013-03-29 06:52:00,62.0,56.0,30.11,SSE,150,11.0,19.0,82,0.00,,,0.00,,2013-03-29 11:52:00,
2013-03-29 07:02:00,62.0,56.0,30.12,East,97,7.0,18.0,82,0.00,,,0.00,,2013-03-29 12:02:00,
2013-03-29 07:12:00,62.0,56.0,30.12,East,97,7.0,18.0,82,0.00,,,0.00,,2013-03-29 12:12:00,
2013-03-29 07:22:00,62.0,56.0,30.13,SSE,166,7.0,14.0,82,0.00,,,0.00,,2013-03-29 12:22:00,
2013-03-29 07:32:00,62.0,57.0,30.14,WSW,238,6.0,14.0,83,0.00,,,0.00,,2013-03-29 12:32:00,
2013-03-29 07:42:00,62.0,57.0,30.14,WSW,238,6.0,14.0,83,0.00,,,0.00,,2013-03-29 12:42:00,
2013-03-29 07:53:00,62.0,57.0,30.14,South,176,6.0,15.0,83,0.00,,,0.00,,2013-03-29 12:53:00,
2013-03-29 08:03:00,61.0,56.0,30.14,East,91,6.0,15.0,83,0.00,,,0.00,,2013-03-29 13:03:00,
2013-03-29 08:12:00,61.0,56.0,30.14,East,91,6.0,15.0,83,0.00,,,0.00,,2013-03-29 13:12:00,
2013-03-29 08:22:00,61.0,56.0,30.16,SSW,205,5.0,13.0,83,0.00,,,0.00,,2013-03-29 13:22:00,
2013-03-29 08:32:00,61.0,56.0,30.16,South,183,3.0,15.0,83,0.00,,,0.00,,2013-03-29 13:32:00,
2013-03-29 08:42:00,61.0,56.0,30.16,South,183,3.0,15.0,83,0.00,,,0.00,,2013-03-29 13:42:00,
2013-03-29 08:53:00,61.0,56.0,30.16,South,179,2.0,12.0,83,0.00,,,0.00,,2013-03-29 13:53:00,
2013-03-29 09:02:00,61.0,56.0,30.16,SE,139,6.0,14.0,83,0.00,,,0.00,,2013-03-29 14:02:00,
2013-03-29 09:12:00,61.0,56.0,30.16,SE,139,6.0,14.0,83,0.00,,,0.00,,2013-03-29 14:12:00,
2013-03-29 09:22:00,62.0,57.0,30.16,SSE,160,6.0,13.0,83,0.00,,,0.00,,2013-03-29 14:22:00,
2013-03-29 09:32:00,62.0,57.0,30.16,SE,124,5.0,15.0,83,0.00,,,0.00,,2013-03-29 14:32:00,
2013-03-29 09:42:00,62.0,57.0,30.16,SE,124,5.0,15.0,83,0.00,,,0.00,,2013-03-29 14:42:00,
2013-03-29 09:53:00,62.0,56.0,30.16,SE,141,5.0,13.0,82,0.00,,,0.00,,2013-03-29 14:53:00,
2013-03-29 10:02:00,62.0,56.0,30.16,SW,224,5.0,14.0,81,0.00,,,0.00,,2013-03-29 15:02:00,
2013-03-29 10:12:00,62.0,56.0,30.16,SW,224,5.0,14.0,81,0.00,,,0.00,,2013-03-29 15:12:00,
2013-03-29 10:22:00,63.0,56.0,30.15,NE,39,5.0,14.0,79,0.00,,,0.00,,2013-03-29 15:22:00,
2013-03-29 10:33:00,64.0,57.0,30.15,South,188,6.0,12.0,78,0.00,,,0.00,,2013-03-29 15:33:00,
2013-03-29 10:43:00,64.0,57.0,30.15,South,188,6.0,12.0,78,0.00,,,0.00,,2013-03-29 15:43:00,
2013-03-29 10:53:00,64.0,57.0,30.15,South,188,6.0,12.0,78,0.00,,,0.00,,2013-03-29 15:53:00,
2013-03-29 11:03:00,65.0,56.0,30.15,SW,219,6.0,17.0,74,0.00,,,0.00,,2013-03-29 16:03:00,
2013-03-29 11:13:00,65.0,56.0,30.15,SW,219,6.0,17.0,74,0.00,,,0.00,,2013-03-29 16:13:00,
2013-03-29 11:23:00,65.0,56.0,30.15,SW,219,6.0,17.0,74,0.00,,,0.00,,2013-03-29 16:23:00,
2013-03-29 11:32:00,67.0,56.0,30.15,SSE,165,9.0,15.0,69,0.00,,,0.00,,2013-03-29 16:32:00,
2013-03-29 11:42:00,67.0,56.0,30.15,SSE,165,9.0,15.0,69,0.00,,,0.00,,2013-03-29 16:42:00,
2013-03-29 11:53:00,67.0,56.0,30.14,SE,138,8.0,15.0,68,0.00,,,0.00,,2013-03-29 16:53:00,
2013-03-29 12:03:00,67.0,56.0,30.14,SSE,158,8.0,14.0,69,0.00,,,0.00,,2013-03-29 17:03:00,
2013-03-29 12:12:00,67.0,56.0,30.14,SSE,158,8.0,14.0,69,0.00,,,0.00,,2013-03-29 17:12:00,
2013-03-29 12:22:00,69.0,57.0,30.13,South,186,11.0,17.0,65,0.00,,,0.00,,2013-03-29 17:22:00,
2013-03-29 12:33:00,69.0,57.0,30.13,South,186,11.0,17.0,65,0.00,,,0.00,,2013-03-29 17:33:00,
2013-03-29 12:42:00,69.0,57.0,30.13,South,186,11.0,17.0,65,0.00,,,0.00,,2013-03-29 17:42:00,
2013-03-29 12:53:00,70.0,57.0,30.12,SSE,162,9.0,16.0,64,0.00,,,0.00,,2013-03-29 17:53:00,
2013-03-29 13:02:00,71.0,57.0,30.12,South,186,8.0,20.0,62,0.00,,,0.00,,2013-03-29 18:02:00,
2013-03-29 13:12:00,71.0,57.0,30.12,South,186,8.0,20.0,62,0.00,,,0.00,,2013-03-29 18:12:00,
2013-03-29 13:22:00,71.0,57.0,30.11,SSW,200,8.0,14.0,61,0.00,,,0.00,,2013-03-29 18:22:00,
2013-03-29 13:32:00,72.0,57.0,30.10,SW,236,11.0,20.0,60,0.00,,,0.00,,2013-03-29 18:32:00,
2013-03-29 13:42:00,72.0,57.0,30.10,SW,236,11.0,20.0,60,0.00,,,0.00,,2013-03-29 18:42:00,
2013-03-29 13:52:00,73.0,57.0,30.09,SSW,210,10.0,19.0,57,0.00,,,0.00,,2013-03-29 18:52:00,
2013-03-29 14:02:00,73.0,57.0,30.08,SE,134,8.0,18.0,58,0.00,,,0.00,,2013-03-29 19:02:00,
2013-03-29 14:12:00,74.0,58.0,30.08,South,191,9.0,18.0,57,0.00,,,0.00,,2013-03-29 19:12:00,
2013-03-29 14:23:00,74.0,58.0,30.08,South,191,9.0,18.0,57,0.00,,,0.00,,2013-03-29 19:23:00,
2013-03-29 14:32:00,74.0,58.0,30.07,South,176,8.0,17.0,57,0.00,,,0.00,,2013-03-29 19:32:00,
2013-03-29 14:42:00,74.0,58.0,30.07,South,176,8.0,17.0,57,0.00,,,0.00,,2013-03-29 19:42:00,
2013-03-29 14:53:00,75.0,58.0,30.06,SW,226,8.0,19.0,55,0.00,,,0.00,,2013-03-29 19:53:00,
2013-03-29 15:02:00,74.0,57.0,30.06,WSW,250,7.0,18.0,56,0.00,,,0.00,,2013-03-29 20:02:00,
2013-03-29 15:12:00,74.0,57.0,30.06,WSW,250,7.0,18.0,56,0.00,,,0.00,,2013-03-29 20:12:00,
2013-03-29 15:22:00,76.0,58.0,30.05,SW,226,10.0,18.0,53,0.00,,,0.00,,2013-03-29 20:22:00,
2013-03-29 15:32:00,76.0,58.0,30.05,SSE,161,8.0,18.0,53,0.00,,,0.00,,2013-03-29 20:32:00,
2013-03-29 15:42:00,76.0,58.0,30.05,SSE,161,8.0,18.0,53,0.00,,,0.00,,2013-03-29 20:42:00,
2013-03-29 15:52:00,76.0,57.0,30.04,South,185,9.0,17.0,52,0.00,,,0.00,,2013-03-29 20:52:00,
2013-03-29 16:02:00,77.0,58.0,30.03,ESE,116,11.0,20.0,52,0.00,,,0.00,,2013-03-29 21:02:00,
2013-03-29 16:12:00,77.0,58.0,30.03,ESE,116,11.0,20.0,52,0.00,,,0.00,,2013-03-29 21:12:00,
2013-03-29 16:22:00,76.0,57.0,30.03,WSW,239,7.0,16.0,52,0.00,,,0.00,,2013-03-29 21:22:00,
2013-03-29 16:33:00,77.0,58.0,30.03,SE,131,6.0,18.0,52,0.00,,,0.00,,2013-03-29 21:33:00,
2013-03-29 16:42:00,77.0,58.0,30.03,SE,131,6.0,18.0,52,0.00,,,0.00,,2013-03-29 21:42:00,
2013-03-29 16:53:00,77.0,58.0,30.03,ENE,76,8.0,19.0,52,0.00,,,0.00,,2013-03-29 21:53:00,
2013-03-29 17:03:00,75.0,58.0,30.03,SE,139,8.0,16.0,55,0.00,,,0.00,,2013-03-29 22:03:00,
2013-03-29 17:12:00,75.0,58.0,30.03,SE,139,8.0,16.0,55,0.00,,,0.00,,2013-03-29 22:12:00,
2013-03-29 17:22:00,75.0,59.0,30.03,SE,129,6.0,22.0,57,0.00,,,0.00,,2013-03-29 22:22:00,
2013-03-29 17:33:00,74.0,58.0,30.03,ENE,73,5.0,15.0,57,0.00,,,0.00,,2013-03-29 22:33:00,
2013-03-29 17:42:00,74.0,58.0,30.03,ENE,73,5.0,15.0,57,0.00,,,0.00,,2013-03-29 22:42:00,
2013-03-29 17:53:00,74.0,58.0,30.03,SE,128,10.0,19.0,58,0.00,,,0.00,,2013-03-29 22:53:00,
2013-03-29 18:02:00,74.0,58.0,30.03,SE,127,11.0,21.0,58,0.00,,,0.00,,2013-03-29 23:02:00,
2013-03-29 18:12:00,74.0,58.0,30.03,SE,127,11.0,21.0,58,0.00,,,0.00,,2013-03-29 23:12:00,
2013-03-29 18:22:00,74.0,59.0,30.03,SE,127,9.0,19.0,59,0.00,,,0.00,,2013-03-29 23:22:00,
2013-03-29 18:32:00,73.0,58.0,30.02,SE,127,9.0,17.0,59,0.00,,,0.00,,2013-03-29 23:32:00,
2013-03-29 18:42:00,73.0,58.0,30.02,SE,127,9.0,17.0,59,0.00,,,0.00,,2013-03-29 23:42:00,
2013-03-29 18:52:00,73.0,58.0,30.02,SE,143,9.0,18.0,60,0.00,,,0.00,,2013-03-29 23:52:00,
2013-03-29 19:03:00,72.0,58.0,30.03,ESE,118,6.0,14.0,62,0.00,,,0.00,,2013-03-30 00:03:00,
2013-03-29 19:12:00,72.0,58.0,30.03,ESE,118,6.0,14.0,62,0.00,,,0.00,,2013-03-30 00:12:00,
2013-03-29 19:22:00,72.0,58.0,30.03,ESE,118,6.0,14.0,62,0.00,,,0.00,,2013-03-30 00:22:00,
2013-03-29 19:32:00,72.0,59.0,30.03,SE,130,7.0,14.0,63,0.00,,,0.00,,2013-03-30 00:32:00,
2013-03-29 19:42:00,72.0,59.0,30.03,SE,130,7.0,14.0,63,0.00,,,0.00,,2013-03-30 00:42:00,
2013-03-29 19:53:00,72.0,59.0,30.04,SSE,162,7.0,15.0,63,0.00,,,0.00,,2013-03-30 00:53:00,
2013-03-29 20:02:00,72.0,59.0,30.03,SE,128,7.0,10.0,63,0.00,,,0.00,,2013-03-30 01:02:00,
2013-03-29 20:12:00,72.0,59.0,30.03,SE,128,7.0,10.0,63,0.00,,,0.00,,2013-03-30 01:12:00,
2013-03-29 20:22:00,71.0,58.0,30.03,SE,134,8.0,13.0,64,0.00,,,0.00,,2013-03-30 01:22:00,
2013-03-29 20:32:00,71.0,58.0,30.03,SSE,148,8.0,16.0,64,0.00,,,0.00,,2013-03-30 01:32:00,
2013-03-29 20:42:00,71.0,58.0,30.03,SSE,148,8.0,16.0,64,0.00,,,0.00,,2013-03-30 01:42:00,
2013-03-29 20:53:00,71.0,58.0,30.03,ESE,120,10.0,17.0,63,0.00,,,0.00,,2013-03-30 01:53:00,
2013-03-29 21:02:00,71.0,58.0,30.03,ESE,108,7.0,12.0,64,0.00,,,0.00,,2013-03-30 02:02:00,
2013-03-29 21:12:00,71.0,58.0,30.03,ESE,108,7.0,12.0,64,0.00,,,0.00,,2013-03-30 02:12:00,
2013-03-29 21:22:00,71.0,58.0,30.03,East,100,7.0,13.0,64,0.00,,,0.00,,2013-03-30 02:22:00,
2013-03-29 21:32:00,71.0,58.0,30.04,SE,135,9.0,16.0,64,0.00,,,0.00,,2013-03-30 02:32:00,
2013-03-29 21:42:00,71.0,58.0,30.04,SE,135,9.0,16.0,64,0.00,,,0.00,,2013-03-30 02:42:00,
2013-03-29 21:53:00,71.0,58.0,30.04,SE,135,9.0,16.0,64,0.00,,,0.00,,2013-03-30 02:53:00,
2013-03-29 22:02:00,70.0,58.0,30.05,SSE,165,7.0,14.0,65,0.00,,,0.00,,2013-03-30 03:02:00,
2013-03-29 22:12:00,70.0,58.0,30.04,ESE,120,6.0,16.0,66,0.00,,,0.00,,2013-03-30 03:12:00,
2013-03-29 22:22:00,70.0,58.0,30.04,ESE,120,6.0,16.0,66,0.00,,,0.00,,2013-03-30 03:22:00,
2013-03-29 22:33:00,70.0,59.0,30.04,SE,129,8.0,14.0,67,0.00,,,0.00,,2013-03-30 03:33:00,
2013-03-29 22:43:00,70.0,59.0,30.04,SE,129,8.0,14.0,67,0.00,,,0.00,,2013-03-30 03:43:00,
2013-03-29 22:53:00,70.0,59.0,30.03,East,95,8.0,14.0,67,0.00,,,0.00,,2013-03-30 03:53:00,
2013-03-29 23:02:00,69.0,58.0,30.02,SSW,205,8.0,14.0,69,0.00,,,0.00,,2013-03-30 04:02:00,
2013-03-29 23:12:00,69.0,58.0,30.02,SSW,205,8.0,14.0,69,0.00,,,0.00,,2013-03-30 04:12:00,
2013-03-29 23:23:00,69.0,58.0,30.00,ESE,117,7.0,22.0,69,0.00,,,0.00,,2013-03-30 04:23:00,
2013-03-29 23:32:00,69.0,60.0,30.00,East,96,10.0,18.0,72,0.00,,,0.00,,2013-03-30 04:32:00,
2013-03-29 23:42:00,69.0,60.0,30.00,East,96,10.0,18.0,72,0.00,,,0.00,,2013-03-30 04:42:00,
2013-03-29 23:53:00,68.0,59.0,29.99,SE,132,6.0,14.0,72,0.00,,,0.00,,2013-03-30 04:53:00,